| time (UTC) | temp F | wind direction | speed knots | gust knots | rain 1hr in | rain 24hr in | rain mn in | humidity % | barometer mb |
| 20260505014400 | 86 | 93 | 0.0 | 0.9 | 0.00 | 0.00 | 0.00 | 78 | |
| 20260505013901 | 86 | 168 | 0.9 | 1.7 | 0.00 | 0.00 | 0.00 | 78 | |
| 20260505013400 | 86 | 94 | 0.0 | 0.0 | 0.00 | 0.00 | 0.00 | 79 | |
| 20260505012901 | 85 | 83 | 0.0 | 0.0 | 0.00 | 0.00 | 0.00 | 79 | |
| 20260505012402 | 84 | 46 | 0.0 | 0.0 | 0.00 | 0.00 | 0.00 | 81 | |
| 20260505011900 | 83 | 94 | 0.0 | 0.0 | 0.00 | 0.00 | 0.00 | 81 | |
| 20260505011401 | 83 | 89 | 0.0 | 0.0 | 0.00 | 0.00 | 0.00 | 82 | |
| 20260505010900 | 83 | 103 | 0.0 | 0.0 | 0.00 | 0.00 | 0.00 | 82 | |
| 20260505010400 | 82 | 230 | 0.9 | 0.9 | 0.00 | 0.00 | 0.00 | 83 | |
| 20260505005900 | 82 | 142 | 0.0 | 0.0 | 0.00 | 0.00 | 0.00 | 83 | |
| 20260505005401 | 82 | 195 | 0.0 | 0.0 | 0.00 | 0.00 | 0.00 | 83 | |
| 20260505004901 | 82 | 192 | 0.9 | 0.9 | 0.00 | 0.00 | 0.00 | 83 | |
| 20260505004401 | 82 | 230 | 0.9 | 1.7 | 0.00 | 0.00 | 0.00 | 83 | |
| 20260505003900 | 82 | 140 | 0.0 | 0.0 | 0.00 | 0.00 | 0.00 | 83 | |
| 20260505003401 | 82 | 147 | 0.0 | 0.0 | 0.00 | 0.00 | 0.00 | 83 | |
| 20260505002901 | 82 | 19 | 0.0 | 0.0 | 0.00 | 0.00 | 0.00 | 83 | |
| 20260505002400 | 82 | 3 | 0.0 | 0.0 | 0.00 | 0.00 | 0.00 | 83 | |
| 20260505001900 | 82 | 30 | 0.0 | 0.0 | 0.00 | 0.00 | 0.00 | 83 | |
| 20260504130400 | 87 | 123 | 1.7 | 2.6 | 0.00 | 0.00 | 0.00 | 89 | |
| 20260504110401 | 93 | 201 | 2.6 | 4.3 | 0.00 | 0.00 | 0.00 | 75 | |
| 20260504081901 | 95 | 117 | 2.6 | 5.2 | 0.00 | 0.00 | 0.00 | 69 | |
| 20260504081401 | 95 | 119 | 1.7 | 2.6 | 0.00 | 0.00 | 0.00 | 69 | |
| 20260504080900 | 95 | 81 | 2.6 | 4.3 | 0.00 | 0.00 | 0.00 | 69 | |
| 20260504080400 | 95 | 141 | 3.5 | 4.3 | 0.00 | 0.00 | 0.00 | 69 | |
| 20260504070401 | 96 | 239 | 0.9 | 1.7 | 0.00 | 0.00 | 0.00 | 69 | |
| 20260504050400 | 89 | 35 | 5.2 | 7.0 | 0.00 | 0.00 | 0.00 | 81 | |
| 20260504045901 | 88 | 232 | 3.5 | 6.1 | 0.00 | 0.00 | 0.00 | 82 | |
| 20260504045400 | 88 | 215 | 1.7 | 1.7 | 0.00 | 0.00 | 0.00 | 84 | |
| 20260504044900 | 87 | 157 | 2.6 | 2.6 | 0.00 | 0.00 | 0.00 | 85 | |
| 20260504044400 | 87 | 242 | 4.3 | 5.2 | 0.00 | 0.00 | 0.00 | 84 | |
| 20260504043900 | 87 | 124 | 3.5 | 4.3 | 0.00 | 0.00 | 0.00 | 83 | |
| 20260504043405 | 87 | 217 | 1.7 | 2.6 | 0.00 | 0.00 | 0.00 | 82 | |
| 20260504042901 | 86 | 208 | 4.3 | 6.1 | 0.00 | 0.00 | 0.00 | 82 | |
| 20260504042401 | 86 | 156 | 4.3 | 5.2 | 0.00 | 0.00 | 0.00 | 82 | |
| 20260504041900 | 86 | 112 | 2.6 | 4.3 | 0.00 | 0.00 | 0.00 | 83 | |
| 20260504041401 | 85 | 147 | 1.7 | 2.6 | 0.00 | 0.00 | 0.00 | 83 | |
| 20260504040900 | 85 | 169 | 2.6 | 2.6 | 0.00 | 0.00 | 0.00 | 84 | |
| 20260504040402 | 86 | 139 | 4.3 | 6.1 | 0.00 | 0.00 | 0.00 | 84 | |
| 20260504035900 | 86 | 143 | 2.6 | 5.2 | 0.00 | 0.00 | 0.00 | 83 | |
| 20260504035408 | 86 | 110 | 1.7 | 1.7 | 0.00 | 0.00 | 0.00 | 84 | |
| 20260504034900 | 86 | 118 | 3.5 | 4.3 | 0.00 | 0.00 | 0.00 | 84 | |
| 20260504034401 | 87 | 180 | 4.3 | 7.8 | 0.00 | 0.00 | 0.00 | 83 | |
| 20260504033900 | 87 | 128 | 2.6 | 2.6 | 0.00 | 0.00 | 0.00 | 83 | |
| 20260504033403 | 87 | 96 | 1.7 | 2.6 | 0.00 | 0.00 | 0.00 | 84 | |
| 20260504032900 | 86 | 94 | 0.9 | 1.7 | 0.00 | 0.00 | 0.00 | 84 | |
| 20260504032400 | 86 | 88 | 6.1 | 7.8 | 0.00 | 0.00 | 0.00 | 84 | |
| 20260504031900 | 86 | 98 | 2.6 | 2.6 | 0.00 | 0.00 | 0.00 | 85 | |
| 20260504031400 | 86 | 112 | 3.5 | 7.0 | 0.00 | 0.00 | 0.00 | 85 | |
| 20260504030901 | 86 | 114 | 1.7 | 2.6 | 0.00 | 0.00 | 0.00 | 85 | |
| 20260504030401 | 86 | 134 | 0.9 | 0.9 | 0.00 | 0.00 | 0.00 | 85 | |
| 20260504025900 | 86 | 137 | 2.6 | 4.3 | 0.00 | 0.00 | 0.00 | 85 | |
| 20260504025401 | 86 | 110 | 0.9 | 0.9 | 0.00 | 0.00 | 0.00 | 85 | |
| 20260504024901 | 86 | 117 | 1.7 | 2.6 | 0.00 | 0.00 | 0.00 | 84 | |
| 20260504024401 | 86 | 100 | 1.7 | 1.7 | 0.00 | 0.00 | 0.00 | 84 | |
| 20260504023901 | 86 | 88 | 0.0 | 0.0 | 0.00 | 0.00 | 0.00 | 85 | |
| 20260504023400 | 86 | 94 | 0.0 | 0.9 | 0.00 | 0.00 | 0.00 | 85 | |
| 20260504022900 | 86 | 93 | 1.7 | 1.7 | 0.00 | 0.00 | 0.00 | 85 | |
| 20260504022400 | 85 | 208 | 1.7 | 2.6 | 0.00 | 0.00 | 0.00 | 85 | |
| 20260504021901 | 85 | 130 | 1.7 | 2.6 | 0.00 | 0.00 | 0.00 | 85 | |
| 20260504021400 | 85 | 88 | 1.7 | 2.6 | 0.00 | 0.00 | 0.00 | 85 | |
| 20260504020900 | 85 | 168 | 4.3 | 5.2 | 0.00 | 0.00 | 0.00 | 85 | |
| 20260504020400 | 84 | 167 | 2.6 | 6.1 | 0.00 | 0.00 | 0.00 | 86 | |
| 20260504015900 | 84 | 95 | 4.3 | 6.1 | 0.00 | 0.00 | 0.00 | 87 | |
| 20260504015400 | 84 | 90 | 1.7 | 1.7 | 0.00 | 0.00 | 0.00 | 88 | |
| 20260504014900 | 83 | 132 | 2.6 | 2.6 | 0.00 | 0.00 | 0.00 | 88 |